#datetime,building,power
2023-07-26T00:00:00,mnr,5.14
2023-07-26T00:01:00,mnr,5.11
2023-07-26T00:02:00,mnr,5.16
2023-07-26T00:03:00,mnr,5.17
2023-07-26T00:04:00,mnr,5.23
2023-07-26T00:05:00,mnr,5.58
2023-07-26T00:06:00,mnr,5.34
2023-07-26T00:07:00,mnr,4.95
2023-07-26T00:08:00,mnr,4.70
2023-07-26T00:09:00,mnr,4.65
2023-07-26T00:10:00,mnr,4.65
2023-07-26T00:11:00,mnr,4.59
2023-07-26T00:12:00,mnr,4.72
2023-07-26T00:13:00,mnr,4.65
2023-07-26T00:14:00,mnr,4.09
2023-07-26T00:15:00,mnr,4.14
2023-07-26T00:16:00,mnr,4.10
2023-07-26T00:17:00,mnr,4.18
2023-07-26T00:18:00,mnr,4.23
2023-07-26T00:19:00,mnr,4.12
2023-07-26T00:20:00,mnr,4.10
2023-07-26T00:21:00,mnr,4.14
2023-07-26T00:22:00,mnr,4.13
2023-07-26T00:23:00,mnr,4.13
2023-07-26T00:24:00,mnr,4.08
2023-07-26T00:25:00,mnr,4.69
2023-07-26T00:26:00,mnr,4.60
2023-07-26T00:27:00,mnr,4.59
2023-07-26T00:28:00,mnr,4.69
2023-07-26T00:29:00,mnr,5.27
2023-07-26T00:30:00,mnr,4.63
2023-07-26T00:31:00,mnr,4.63
2023-07-26T00:32:00,mnr,4.59
2023-07-26T00:33:00,mnr,4.59
2023-07-26T00:34:00,mnr,4.57
2023-07-26T00:35:00,mnr,4.60
2023-07-26T00:36:00,mnr,4.59
2023-07-26T00:37:00,mnr,5.34
2023-07-26T00:38:00,mnr,4.16
2023-07-26T00:39:00,mnr,4.62
2023-07-26T00:40:00,mnr,4.68
2023-07-26T00:41:00,mnr,4.80
2023-07-26T00:42:00,mnr,4.95
2023-07-26T00:43:00,mnr,4.77
2023-07-26T00:44:00,mnr,4.77
2023-07-26T00:45:00,mnr,4.70
2023-07-26T00:46:00,mnr,4.65
2023-07-26T00:47:00,mnr,4.71
2023-07-26T00:48:00,mnr,4.66
2023-07-26T00:49:00,mnr,4.64
2023-07-26T00:50:00,mnr,4.73
2023-07-26T00:51:00,mnr,4.74
2023-07-26T00:52:00,mnr,4.77
2023-07-26T00:53:00,mnr,4.66
2023-07-26T00:54:00,mnr,4.65
2023-07-26T00:55:00,mnr,4.64
2023-07-26T00:56:00,mnr,4.65
2023-07-26T00:57:00,mnr,4.68
2023-07-26T00:58:00,mnr,4.72
2023-07-26T00:59:00,mnr,4.67
2023-07-26T01:00:00,mnr,4.55
2023-07-26T01:01:00,mnr,4.49
2023-07-26T01:02:00,mnr,4.99
2023-07-26T01:03:00,mnr,5.00
2023-07-26T01:04:00,mnr,5.47
2023-07-26T01:05:00,mnr,5.59
2023-07-26T01:06:00,mnr,5.77
2023-07-26T01:07:00,mnr,5.20
2023-07-26T01:08:00,mnr,4.58
2023-07-26T01:09:00,mnr,4.54
2023-07-26T01:10:00,mnr,4.48
2023-07-26T01:11:00,mnr,4.54
2023-07-26T01:12:00,mnr,4.46
2023-07-26T01:13:00,mnr,4.54
2023-07-26T01:14:00,mnr,4.53
2023-07-26T01:15:00,mnr,4.47
2023-07-26T01:16:00,mnr,4.45
2023-07-26T01:17:00,mnr,4.86
2023-07-26T01:18:00,mnr,4.73
2023-07-26T01:19:00,mnr,4.44
2023-07-26T01:20:00,mnr,4.46
2023-07-26T01:21:00,mnr,4.43
2023-07-26T01:22:00,mnr,4.53
2023-07-26T01:23:00,mnr,4.48
2023-07-26T01:24:00,mnr,4.56
2023-07-26T01:25:00,mnr,4.58
2023-07-26T01:26:00,mnr,4.60
2023-07-26T01:27:00,mnr,4.53
2023-07-26T01:28:00,mnr,4.63
2023-07-26T01:29:00,mnr,4.59
2023-07-26T01:30:00,mnr,4.51
2023-07-26T01:31:00,mnr,4.52
2023-07-26T01:32:00,mnr,4.50
2023-07-26T01:33:00,mnr,4.47
2023-07-26T01:34:00,mnr,4.35
2023-07-26T01:35:00,mnr,4.38
2023-07-26T01:36:00,mnr,4.36
2023-07-26T01:37:00,mnr,4.24
2023-07-26T01:38:00,mnr,4.32
2023-07-26T01:39:00,mnr,3.80
2023-07-26T01:40:00,mnr,4.45
2023-07-26T01:41:00,mnr,4.51
2023-07-26T01:42:00,mnr,3.87
2023-07-26T01:43:00,mnr,3.93
2023-07-26T01:44:00,mnr,3.96
2023-07-26T01:45:00,mnr,3.93
2023-07-26T01:46:00,mnr,4.26
2023-07-26T01:47:00,mnr,4.01
2023-07-26T01:48:00,mnr,3.95
2023-07-26T01:49:00,mnr,3.93
2023-07-26T01:50:00,mnr,3.93
2023-07-26T01:51:00,mnr,3.95
2023-07-26T01:52:00,mnr,3.92
2023-07-26T01:53:00,mnr,3.92
2023-07-26T01:54:00,mnr,3.97
2023-07-26T01:55:00,mnr,3.92
2023-07-26T01:56:00,mnr,4.00
2023-07-26T01:57:00,mnr,4.00
2023-07-26T01:58:00,mnr,4.11
2023-07-26T01:59:00,mnr,4.15
2023-07-26T02:00:00,mnr,4.11
2023-07-26T02:01:00,mnr,4.09
2023-07-26T02:02:00,mnr,4.06
2023-07-26T02:03:00,mnr,4.05
2023-07-26T02:04:00,mnr,4.03
2023-07-26T02:05:00,mnr,4.48
2023-07-26T02:06:00,mnr,4.01
2023-07-26T02:07:00,mnr,3.94
2023-07-26T02:08:00,mnr,4.22
2023-07-26T02:09:00,mnr,4.01
2023-07-26T02:10:00,mnr,4.05
2023-07-26T02:11:00,mnr,4.09
2023-07-26T02:12:00,mnr,4.03
2023-07-26T02:13:00,mnr,4.09
2023-07-26T02:14:00,mnr,4.20
2023-07-26T02:15:00,mnr,4.80
2023-07-26T02:16:00,mnr,4.09
2023-07-26T02:17:00,mnr,4.01
2023-07-26T02:18:00,mnr,4.10
2023-07-26T02:19:00,mnr,4.12
2023-07-26T02:20:00,mnr,4.08
2023-07-26T02:21:00,mnr,4.08
2023-07-26T02:22:00,mnr,4.06
2023-07-26T02:23:00,mnr,4.08
2023-07-26T02:24:00,mnr,4.04
2023-07-26T02:25:00,mnr,4.06
2023-07-26T02:26:00,mnr,4.38
2023-07-26T02:27:00,mnr,4.47
2023-07-26T02:28:00,mnr,4.48
2023-07-26T02:29:00,mnr,4.46
2023-07-26T02:30:00,mnr,4.33
2023-07-26T02:31:00,mnr,4.43
2023-07-26T02:32:00,mnr,4.43
2023-07-26T02:33:00,mnr,4.44
2023-07-26T02:34:00,mnr,4.67
2023-07-26T02:35:00,mnr,4.42
2023-07-26T02:36:00,mnr,4.43
2023-07-26T02:37:00,mnr,4.46
2023-07-26T02:38:00,mnr,4.38
2023-07-26T02:39:00,mnr,4.69
2023-07-26T02:40:00,mnr,4.42
2023-07-26T02:41:00,mnr,4.73
2023-07-26T02:42:00,mnr,4.28
2023-07-26T02:43:00,mnr,5.00
2023-07-26T02:44:00,mnr,4.38
2023-07-26T02:45:00,mnr,4.27
2023-07-26T02:46:00,mnr,4.27
2023-07-26T02:47:00,mnr,4.34
2023-07-26T02:48:00,mnr,4.28
2023-07-26T02:49:00,mnr,4.33
2023-07-26T02:50:00,mnr,4.32
2023-07-26T02:51:00,mnr,4.35
2023-07-26T02:52:00,mnr,4.29
2023-07-26T02:53:00,mnr,4.29
2023-07-26T02:54:00,mnr,4.33
2023-07-26T02:55:00,mnr,4.29
2023-07-26T02:56:00,mnr,4.31
2023-07-26T02:57:00,mnr,4.30
2023-07-26T02:58:00,mnr,4.36
2023-07-26T02:59:00,mnr,4.33
2023-07-26T03:00:00,mnr,4.30
2023-07-26T03:01:00,mnr,4.29
2023-07-26T03:02:00,mnr,4.34
2023-07-26T03:03:00,mnr,4.39
2023-07-26T03:04:00,mnr,3.92
2023-07-26T03:05:00,mnr,3.94
2023-07-26T03:06:00,mnr,3.95
2023-07-26T03:07:00,mnr,4.04
2023-07-26T03:08:00,mnr,4.01
2023-07-26T03:09:00,mnr,4.01
2023-07-26T03:10:00,mnr,3.99
2023-07-26T03:11:00,mnr,4.02
2023-07-26T03:12:00,mnr,4.03
2023-07-26T03:13:00,mnr,4.14
2023-07-26T03:14:00,mnr,4.07
2023-07-26T03:15:00,mnr,4.05
2023-07-26T03:16:00,mnr,4.10
2023-07-26T03:17:00,mnr,4.12
2023-07-26T03:18:00,mnr,4.12
2023-07-26T03:19:00,mnr,4.08
2023-07-26T03:20:00,mnr,4.09
2023-07-26T03:21:00,mnr,4.10
2023-07-26T03:22:00,mnr,4.13
2023-07-26T03:23:00,mnr,4.05
2023-07-26T03:24:00,mnr,4.02
2023-07-26T03:25:00,mnr,4.14
2023-07-26T03:26:00,mnr,4.18
2023-07-26T03:27:00,mnr,4.15
2023-07-26T03:28:00,mnr,4.23
2023-07-26T03:29:00,mnr,4.27
2023-07-26T03:30:00,mnr,4.23
2023-07-26T03:31:00,mnr,4.30
2023-07-26T03:32:00,mnr,4.15
2023-07-26T03:33:00,mnr,4.08
2023-07-26T03:34:00,mnr,4.74
2023-07-26T03:35:00,mnr,4.03
2023-07-26T03:36:00,mnr,4.69
2023-07-26T03:37:00,mnr,3.97
2023-07-26T03:38:00,mnr,3.95
2023-07-26T03:39:00,mnr,4.04
2023-07-26T03:40:00,mnr,3.98
2023-07-26T03:41:00,mnr,4.03
2023-07-26T03:42:00,mnr,4.07
2023-07-26T03:43:00,mnr,4.71
2023-07-26T03:44:00,mnr,4.10
2023-07-26T03:45:00,mnr,4.07
2023-07-26T03:46:00,mnr,3.96
2023-07-26T03:47:00,mnr,4.50
2023-07-26T03:48:00,mnr,3.86
2023-07-26T03:49:00,mnr,3.80
2023-07-26T03:50:00,mnr,3.82
2023-07-26T03:51:00,mnr,3.80
2023-07-26T03:52:00,mnr,4.21
2023-07-26T03:53:00,mnr,4.19
2023-07-26T03:54:00,mnr,4.22
2023-07-26T03:55:00,mnr,4.24
2023-07-26T03:56:00,mnr,4.29
2023-07-26T03:57:00,mnr,4.25
2023-07-26T03:58:00,mnr,4.32
2023-07-26T03:59:00,mnr,4.32
2023-07-26T04:00:00,mnr,4.45
2023-07-26T04:01:00,mnr,4.36
2023-07-26T04:02:00,mnr,4.42
2023-07-26T04:03:00,mnr,4.34
2023-07-26T04:04:00,mnr,4.42
2023-07-26T04:05:00,mnr,4.38
2023-07-26T04:06:00,mnr,4.37
2023-07-26T04:07:00,mnr,4.39
2023-07-26T04:08:00,mnr,4.37
2023-07-26T04:09:00,mnr,4.35
2023-07-26T04:10:00,mnr,4.35
2023-07-26T04:11:00,mnr,4.44
2023-07-26T04:12:00,mnr,4.36
2023-07-26T04:13:00,mnr,4.45
2023-07-26T04:14:00,mnr,4.54
2023-07-26T04:15:00,mnr,4.54
2023-07-26T04:16:00,mnr,4.40
2023-07-26T04:17:00,mnr,4.41
2023-07-26T04:18:00,mnr,4.64
2023-07-26T04:19:00,mnr,4.39
2023-07-26T04:20:00,mnr,4.38
2023-07-26T04:21:00,mnr,4.34
2023-07-26T04:22:00,mnr,4.35
2023-07-26T04:23:00,mnr,4.47
2023-07-26T04:24:00,mnr,4.45
2023-07-26T04:25:00,mnr,4.47
2023-07-26T04:26:00,mnr,4.43
2023-07-26T04:27:00,mnr,4.47
2023-07-26T04:28:00,mnr,4.54
2023-07-26T04:29:00,mnr,4.58
2023-07-26T04:30:00,mnr,4.08
2023-07-26T04:31:00,mnr,4.01
2023-07-26T04:32:00,mnr,4.00
2023-07-26T04:33:00,mnr,4.00
2023-07-26T04:34:00,mnr,4.01
2023-07-26T04:35:00,mnr,4.07
2023-07-26T04:36:00,mnr,4.08
2023-07-26T04:37:00,mnr,4.06
2023-07-26T04:38:00,mnr,4.10
2023-07-26T04:39:00,mnr,4.14
2023-07-26T04:40:00,mnr,4.04
2023-07-26T04:41:00,mnr,4.06
2023-07-26T04:42:00,mnr,4.01
2023-07-26T04:43:00,mnr,4.05
2023-07-26T04:44:00,mnr,4.13
2023-07-26T04:45:00,mnr,4.06
2023-07-26T04:46:00,mnr,4.04
2023-07-26T04:47:00,mnr,4.03
2023-07-26T04:48:00,mnr,4.02
2023-07-26T04:49:00,mnr,3.95
2023-07-26T04:50:00,mnr,5.05
2023-07-26T04:51:00,mnr,4.92
2023-07-26T04:52:00,mnr,5.68
2023-07-26T04:53:00,mnr,5.87
2023-07-26T04:54:00,mnr,5.85
2023-07-26T04:55:00,mnr,5.73
2023-07-26T04:56:00,mnr,5.72
2023-07-26T04:57:00,mnr,5.78
2023-07-26T04:58:00,mnr,5.71
2023-07-26T04:59:00,mnr,6.22
2023-07-26T05:00:00,mnr,5.58
2023-07-26T05:01:00,mnr,5.47
2023-07-26T05:02:00,mnr,5.22
2023-07-26T05:03:00,mnr,5.20
2023-07-26T05:04:00,mnr,5.33
2023-07-26T05:05:00,mnr,5.29
2023-07-26T05:06:00,mnr,6.88
2023-07-26T05:07:00,mnr,6.73
2023-07-26T05:08:00,mnr,6.78
2023-07-26T05:09:00,mnr,6.71
2023-07-26T05:10:00,mnr,6.69
2023-07-26T05:11:00,mnr,6.65
2023-07-26T05:12:00,mnr,6.69
2023-07-26T05:13:00,mnr,6.63
2023-07-26T05:14:00,mnr,6.74
2023-07-26T05:15:00,mnr,6.81
2023-07-26T05:16:00,mnr,6.84
2023-07-26T05:17:00,mnr,6.76
2023-07-26T05:18:00,mnr,6.64
2023-07-26T05:19:00,mnr,6.52
2023-07-26T05:20:00,mnr,5.30
2023-07-26T05:21:00,mnr,5.79
2023-07-26T05:22:00,mnr,5.27
2023-07-26T05:23:00,mnr,5.79
2023-07-26T05:24:00,mnr,5.83
2023-07-26T05:25:00,mnr,6.75
2023-07-26T05:26:00,mnr,6.76
2023-07-26T05:27:00,mnr,6.77
2023-07-26T05:28:00,mnr,6.69
2023-07-26T05:29:00,mnr,6.86
2023-07-26T05:30:00,mnr,6.83
2023-07-26T05:31:00,mnr,6.87
2023-07-26T05:32:00,mnr,6.19
2023-07-26T05:33:00,mnr,6.14
2023-07-26T05:34:00,mnr,6.86
2023-07-26T05:35:00,mnr,6.97
2023-07-26T05:36:00,mnr,6.79
2023-07-26T05:37:00,mnr,6.76
2023-07-26T05:38:00,mnr,6.74
2023-07-26T05:39:00,mnr,6.75
2023-07-26T05:40:00,mnr,6.56
2023-07-26T05:41:00,mnr,6.56
2023-07-26T05:42:00,mnr,5.94
2023-07-26T05:43:00,mnr,5.87
2023-07-26T05:44:00,mnr,5.86
2023-07-26T05:45:00,mnr,6.46
2023-07-26T05:46:00,mnr,6.03
2023-07-26T05:47:00,mnr,5.91
2023-07-26T05:48:00,mnr,5.92
2023-07-26T05:49:00,mnr,5.42
2023-07-26T05:50:00,mnr,5.80
2023-07-26T05:51:00,mnr,5.37
2023-07-26T05:52:00,mnr,5.16
2023-07-26T05:53:00,mnr,5.23
2023-07-26T05:54:00,mnr,5.26
2023-07-26T05:55:00,mnr,5.21
2023-07-26T05:56:00,mnr,5.25
2023-07-26T05:57:00,mnr,5.16
2023-07-26T05:58:00,mnr,5.21
2023-07-26T05:59:00,mnr,5.11
2023-07-26T06:00:00,mnr,5.12
2023-07-26T06:01:00,mnr,6.37
2023-07-26T06:02:00,mnr,6.99
2023-07-26T06:03:00,mnr,7.82
2023-07-26T06:04:00,mnr,7.93
2023-07-26T06:05:00,mnr,7.87
2023-07-26T06:06:00,mnr,8.41
2023-07-26T06:07:00,mnr,7.97
2023-07-26T06:08:00,mnr,7.90
2023-07-26T06:09:00,mnr,9.58
2023-07-26T06:10:00,mnr,10.37
2023-07-26T06:11:00,mnr,9.19
2023-07-26T06:12:00,mnr,9.26
2023-07-26T06:13:00,mnr,9.17
2023-07-26T06:14:00,mnr,9.84
2023-07-26T06:15:00,mnr,9.84
2023-07-26T06:16:00,mnr,9.22
2023-07-26T06:17:00,mnr,9.11
2023-07-26T06:18:00,mnr,9.12
2023-07-26T06:19:00,mnr,9.14
2023-07-26T06:20:00,mnr,9.22
2023-07-26T06:21:00,mnr,9.88
2023-07-26T06:22:00,mnr,9.84
2023-07-26T06:23:00,mnr,9.94
2023-07-26T06:24:00,mnr,10.04
2023-07-26T06:25:00,mnr,10.01
2023-07-26T06:26:00,mnr,11.96
2023-07-26T06:27:00,mnr,12.03
2023-07-26T06:28:00,mnr,12.05
2023-07-26T06:29:00,mnr,11.99
2023-07-26T06:30:00,mnr,12.12
2023-07-26T06:31:00,mnr,12.13
2023-07-26T06:32:00,mnr,10.80
2023-07-26T06:33:00,mnr,10.83
2023-07-26T06:34:00,mnr,10.63
2023-07-26T06:35:00,mnr,10.60
2023-07-26T06:36:00,mnr,12.13
2023-07-26T06:37:00,mnr,11.97
2023-07-26T06:38:00,mnr,12.60
2023-07-26T06:39:00,mnr,12.90
2023-07-26T06:40:00,mnr,12.86
2023-07-26T06:41:00,mnr,12.87
2023-07-26T06:42:00,mnr,12.90
2023-07-26T06:43:00,mnr,12.74
2023-07-26T06:44:00,mnr,12.95
2023-07-26T06:45:00,mnr,12.28
2023-07-26T06:46:00,mnr,10.91
2023-07-26T06:47:00,mnr,10.67
2023-07-26T06:48:00,mnr,11.18
2023-07-26T06:49:00,mnr,11.22
2023-07-26T06:50:00,mnr,11.28
2023-07-26T06:51:00,mnr,11.34
2023-07-26T06:52:00,mnr,11.69
2023-07-26T06:53:00,mnr,11.13
2023-07-26T06:54:00,mnr,10.98
2023-07-26T06:55:00,mnr,11.04
2023-07-26T06:56:00,mnr,11.08
2023-07-26T06:57:00,mnr,11.29
2023-07-26T06:58:00,mnr,11.22
2023-07-26T06:59:00,mnr,11.72
2023-07-26T07:00:00,mnr,11.81
2023-07-26T07:01:00,mnr,11.96
2023-07-26T07:02:00,mnr,11.88
2023-07-26T07:03:00,mnr,12.11
2023-07-26T07:04:00,mnr,12.86
2023-07-26T07:05:00,mnr,12.89
2023-07-26T07:06:00,mnr,13.77
2023-07-26T07:07:00,mnr,12.64
2023-07-26T07:08:00,mnr,12.61
2023-07-26T07:09:00,mnr,12.54
2023-07-26T07:10:00,mnr,11.95
2023-07-26T07:11:00,mnr,9.98
2023-07-26T07:12:00,mnr,9.96
2023-07-26T07:13:00,mnr,9.93
2023-07-26T07:14:00,mnr,9.72
2023-07-26T07:15:00,mnr,9.73
2023-07-26T07:16:00,mnr,9.70
2023-07-26T07:17:00,mnr,9.51
2023-07-26T07:18:00,mnr,9.35
2023-07-26T07:19:00,mnr,9.30
2023-07-26T07:20:00,mnr,9.17
2023-07-26T07:21:00,mnr,8.92
2023-07-26T07:22:00,mnr,8.92
2023-07-26T07:23:00,mnr,8.38
2023-07-26T07:24:00,mnr,8.37
2023-07-26T07:25:00,mnr,8.39
2023-07-26T07:26:00,mnr,8.35
2023-07-26T07:27:00,mnr,8.36
2023-07-26T07:28:00,mnr,8.36
2023-07-26T07:29:00,mnr,8.40
2023-07-26T07:30:00,mnr,8.46
2023-07-26T07:31:00,mnr,8.72
2023-07-26T07:32:00,mnr,7.97
2023-07-26T07:33:00,mnr,8.72
2023-07-26T07:34:00,mnr,9.71
2023-07-26T07:35:00,mnr,9.76
2023-07-26T07:36:00,mnr,9.81
2023-07-26T07:37:00,mnr,9.33
2023-07-26T07:38:00,mnr,9.30
2023-07-26T07:39:00,mnr,9.30
2023-07-26T07:40:00,mnr,9.30
2023-07-26T07:41:00,mnr,9.33
2023-07-26T07:42:00,mnr,8.77
2023-07-26T07:43:00,mnr,8.65
2023-07-26T07:44:00,mnr,8.44
2023-07-26T07:45:00,mnr,8.49
2023-07-26T07:46:00,mnr,9.96
2023-07-26T07:47:00,mnr,9.17
2023-07-26T07:48:00,mnr,9.21
2023-07-26T07:49:00,mnr,9.68
2023-07-26T07:50:00,mnr,9.58
2023-07-26T07:51:00,mnr,9.69
2023-07-26T07:52:00,mnr,9.77
2023-07-26T07:53:00,mnr,9.84
2023-07-26T07:54:00,mnr,9.81
2023-07-26T07:55:00,mnr,10.88
2023-07-26T07:56:00,mnr,9.80
2023-07-26T07:57:00,mnr,9.71
2023-07-26T07:58:00,mnr,9.72
2023-07-26T07:59:00,mnr,9.11
2023-07-26T08:00:00,mnr,9.78
2023-07-26T08:01:00,mnr,9.81
2023-07-26T08:02:00,mnr,12.84
2023-07-26T08:03:00,mnr,16.21
2023-07-26T08:04:00,mnr,13.83
2023-07-26T08:05:00,mnr,14.43
2023-07-26T08:06:00,mnr,14.65
2023-07-26T08:07:00,mnr,14.51
2023-07-26T08:08:00,mnr,14.58
2023-07-26T08:09:00,mnr,11.68
2023-07-26T08:10:00,mnr,14.58
2023-07-26T08:11:00,mnr,14.92
2023-07-26T08:12:00,mnr,14.87
2023-07-26T08:13:00,mnr,14.75
2023-07-26T08:14:00,mnr,14.59
2023-07-26T08:15:00,mnr,14.76
2023-07-26T08:16:00,mnr,13.82
2023-07-26T08:17:00,mnr,13.93
2023-07-26T08:18:00,mnr,13.35
2023-07-26T08:19:00,mnr,13.10
2023-07-26T08:20:00,mnr,13.08
2023-07-26T08:21:00,mnr,13.08
2023-07-26T08:22:00,mnr,14.11
2023-07-26T08:23:00,mnr,13.06
2023-07-26T08:24:00,mnr,15.28
2023-07-26T08:25:00,mnr,13.36
2023-07-26T08:26:00,mnr,13.45
2023-07-26T08:27:00,mnr,11.84
2023-07-26T08:28:00,mnr,11.81
2023-07-26T08:29:00,mnr,13.43
2023-07-26T08:30:00,mnr,13.63
2023-07-26T08:31:00,mnr,13.71
2023-07-26T08:32:00,mnr,15.57
2023-07-26T08:33:00,mnr,15.11
2023-07-26T08:34:00,mnr,15.10
2023-07-26T08:35:00,mnr,15.10
2023-07-26T08:36:00,mnr,14.61
2023-07-26T08:37:00,mnr,14.50
2023-07-26T08:38:00,mnr,14.34
2023-07-26T08:39:00,mnr,14.16
2023-07-26T08:40:00,mnr,14.10
2023-07-26T08:41:00,mnr,14.31
2023-07-26T08:42:00,mnr,14.29
2023-07-26T08:43:00,mnr,15.44
2023-07-26T08:44:00,mnr,14.49
2023-07-26T08:45:00,mnr,14.89
2023-07-26T08:46:00,mnr,14.93
2023-07-26T08:47:00,mnr,14.90
2023-07-26T08:48:00,mnr,15.14
2023-07-26T08:49:00,mnr,14.84
2023-07-26T08:50:00,mnr,25.19
2023-07-26T08:51:00,mnr,15.06
2023-07-26T08:52:00,mnr,17.31
2023-07-26T08:53:00,mnr,15.35
2023-07-26T08:54:00,mnr,15.26
2023-07-26T08:55:00,mnr,16.23
2023-07-26T08:56:00,mnr,15.99
2023-07-26T08:57:00,mnr,16.04
2023-07-26T08:58:00,mnr,16.55
2023-07-26T08:59:00,mnr,17.59
2023-07-26T09:00:00,mnr,20.19
2023-07-26T09:01:00,mnr,15.72
2023-07-26T09:02:00,mnr,18.06
2023-07-26T09:03:00,mnr,17.88
2023-07-26T09:04:00,mnr,18.09
2023-07-26T09:05:00,mnr,18.23
2023-07-26T09:06:00,mnr,18.73
2023-07-26T09:07:00,mnr,18.41
2023-07-26T09:08:00,mnr,18.28
2023-07-26T09:09:00,mnr,18.41
2023-07-26T09:10:00,mnr,18.19
2023-07-26T09:11:00,mnr,18.05
2023-07-26T09:12:00,mnr,18.63
2023-07-26T09:13:00,mnr,20.18
2023-07-26T09:14:00,mnr,18.74
2023-07-26T09:15:00,mnr,19.15
2023-07-26T09:16:00,mnr,19.27
2023-07-26T09:17:00,mnr,19.56
2023-07-26T09:18:00,mnr,19.40
2023-07-26T09:19:00,mnr,19.48
2023-07-26T09:20:00,mnr,19.80
2023-07-26T09:21:00,mnr,20.13
2023-07-26T09:22:00,mnr,20.28
2023-07-26T09:23:00,mnr,19.92
2023-07-26T09:24:00,mnr,19.77
2023-07-26T09:25:00,mnr,19.88
2023-07-26T09:26:00,mnr,19.96
2023-07-26T09:27:00,mnr,19.80
2023-07-26T09:28:00,mnr,19.23
2023-07-26T09:29:00,mnr,18.91
2023-07-26T09:30:00,mnr,19.01
2023-07-26T09:31:00,mnr,19.60
2023-07-26T09:32:00,mnr,18.85
2023-07-26T09:33:00,mnr,21.71
2023-07-26T09:34:00,mnr,21.21
2023-07-26T09:35:00,mnr,21.86
2023-07-26T09:36:00,mnr,23.23
2023-07-26T09:37:00,mnr,25.64
2023-07-26T09:38:00,mnr,28.26
2023-07-26T09:39:00,mnr,31.37
2023-07-26T09:40:00,mnr,34.58
2023-07-26T09:41:00,mnr,35.71
2023-07-26T09:42:00,mnr,32.93
2023-07-26T09:43:00,mnr,20.35
2023-07-26T09:44:00,mnr,19.37
2023-07-26T09:45:00,mnr,20.27
2023-07-26T09:46:00,mnr,20.53
2023-07-26T09:47:00,mnr,19.99
2023-07-26T09:48:00,mnr,19.79
2023-07-26T09:49:00,mnr,20.23
2023-07-26T09:50:00,mnr,19.90
2023-07-26T09:51:00,mnr,20.27
2023-07-26T09:52:00,mnr,19.81
2023-07-26T09:53:00,mnr,20.45
2023-07-26T09:54:00,mnr,19.92
2023-07-26T09:55:00,mnr,21.78
2023-07-26T09:56:00,mnr,22.33
2023-07-26T09:57:00,mnr,23.73
2023-07-26T09:58:00,mnr,25.80
2023-07-26T09:59:00,mnr,28.82
2023-07-26T10:00:00,mnr,31.51
2023-07-26T10:01:00,mnr,32.24
2023-07-26T10:02:00,mnr,34.15
2023-07-26T10:03:00,mnr,21.63
2023-07-26T10:04:00,mnr,18.80
2023-07-26T10:05:00,mnr,19.48
2023-07-26T10:06:00,mnr,18.53
2023-07-26T10:07:00,mnr,17.50
2023-07-26T10:08:00,mnr,17.72
2023-07-26T10:09:00,mnr,18.08
2023-07-26T10:10:00,mnr,18.50
2023-07-26T10:11:00,mnr,18.74
2023-07-26T10:12:00,mnr,18.47
2023-07-26T10:13:00,mnr,17.85
2023-07-26T10:14:00,mnr,18.05
2023-07-26T10:15:00,mnr,17.82
2023-07-26T10:16:00,mnr,18.45
2023-07-26T10:17:00,mnr,17.84
2023-07-26T10:18:00,mnr,17.72
2023-07-26T10:19:00,mnr,17.39
2023-07-26T10:20:00,mnr,17.45
2023-07-26T10:21:00,mnr,17.38
2023-07-26T10:22:00,mnr,17.16
2023-07-26T10:23:00,mnr,16.68
2023-07-26T10:24:00,mnr,18.48
2023-07-26T10:25:00,mnr,16.25
2023-07-26T10:26:00,mnr,16.45
2023-07-26T10:27:00,mnr,16.52
2023-07-26T10:28:00,mnr,16.88
2023-07-26T10:29:00,mnr,17.82
2023-07-26T10:30:00,mnr,18.21
2023-07-26T10:31:00,mnr,18.21
2023-07-26T10:32:00,mnr,18.18
2023-07-26T10:33:00,mnr,18.25
2023-07-26T10:34:00,mnr,18.23
2023-07-26T10:35:00,mnr,18.39
2023-07-26T10:36:00,mnr,18.48
2023-07-26T10:37:00,mnr,18.71
2023-07-26T10:38:00,mnr,18.21
2023-07-26T10:39:00,mnr,17.23
2023-07-26T10:40:00,mnr,17.11
2023-07-26T10:41:00,mnr,16.97
2023-07-26T10:42:00,mnr,17.24
2023-07-26T10:43:00,mnr,17.14
2023-07-26T10:44:00,mnr,16.81
2023-07-26T10:45:00,mnr,16.89
2023-07-26T10:46:00,mnr,16.28
2023-07-26T10:47:00,mnr,17.18
2023-07-26T10:48:00,mnr,16.49
2023-07-26T10:49:00,mnr,16.78
2023-07-26T10:50:00,mnr,16.76
2023-07-26T10:51:00,mnr,17.74
2023-07-26T10:52:00,mnr,17.63
2023-07-26T10:53:00,mnr,18.24
2023-07-26T10:54:00,mnr,18.22
2023-07-26T10:55:00,mnr,17.91
2023-07-26T10:56:00,mnr,18.98
2023-07-26T10:57:00,mnr,18.86
2023-07-26T10:58:00,mnr,18.43
2023-07-26T10:59:00,mnr,18.70
2023-07-26T11:00:00,mnr,18.94
2023-07-26T11:01:00,mnr,18.88
2023-07-26T11:02:00,mnr,18.88
2023-07-26T11:03:00,mnr,18.45
2023-07-26T11:04:00,mnr,18.41
2023-07-26T11:05:00,mnr,18.46
2023-07-26T11:06:00,mnr,18.13
2023-07-26T11:07:00,mnr,18.36
2023-07-26T11:08:00,mnr,20.34
2023-07-26T11:09:00,mnr,19.28
2023-07-26T11:10:00,mnr,19.92
2023-07-26T11:11:00,mnr,20.11
2023-07-26T11:12:00,mnr,21.72
2023-07-26T11:13:00,mnr,21.98
2023-07-26T11:14:00,mnr,22.84
2023-07-26T11:15:00,mnr,21.42
2023-07-26T11:16:00,mnr,21.41
2023-07-26T11:17:00,mnr,21.33
2023-07-26T11:18:00,mnr,18.28
2023-07-26T11:19:00,mnr,17.63
2023-07-26T11:20:00,mnr,17.51
2023-07-26T11:21:00,mnr,17.50
2023-07-26T11:22:00,mnr,17.35
2023-07-26T11:23:00,mnr,17.29
2023-07-26T11:24:00,mnr,17.48
2023-07-26T11:25:00,mnr,17.79
2023-07-26T11:26:00,mnr,17.64
2023-07-26T11:27:00,mnr,17.08
2023-07-26T11:28:00,mnr,17.13
2023-07-26T11:29:00,mnr,17.29
2023-07-26T11:30:00,mnr,17.47
2023-07-26T11:31:00,mnr,18.24
2023-07-26T11:32:00,mnr,17.86
2023-07-26T11:33:00,mnr,18.43
2023-07-26T11:34:00,mnr,18.33
2023-07-26T11:35:00,mnr,19.28
2023-07-26T11:36:00,mnr,18.27
2023-07-26T11:37:00,mnr,18.22
2023-07-26T11:38:00,mnr,19.92
2023-07-26T11:39:00,mnr,17.45
2023-07-26T11:40:00,mnr,17.52
2023-07-26T11:41:00,mnr,17.54
2023-07-26T11:42:00,mnr,17.62
2023-07-26T11:43:00,mnr,17.01
2023-07-26T11:44:00,mnr,17.54
2023-07-26T11:45:00,mnr,16.76
2023-07-26T11:46:00,mnr,16.58
2023-07-26T11:47:00,mnr,16.52
2023-07-26T11:48:00,mnr,16.45
2023-07-26T11:49:00,mnr,16.44
2023-07-26T11:50:00,mnr,16.53
2023-07-26T11:51:00,mnr,16.80
2023-07-26T11:52:00,mnr,16.19
2023-07-26T11:53:00,mnr,17.21
2023-07-26T11:54:00,mnr,16.77
2023-07-26T11:55:00,mnr,17.23
2023-07-26T11:56:00,mnr,16.72
2023-07-26T11:57:00,mnr,17.39
2023-07-26T11:58:00,mnr,17.10
2023-07-26T11:59:00,mnr,16.19
2023-07-26T12:00:00,mnr,16.51
2023-07-26T12:01:00,mnr,17.07
2023-07-26T12:02:00,mnr,19.00
2023-07-26T12:03:00,mnr,21.55
2023-07-26T12:04:00,mnr,24.20
2023-07-26T12:05:00,mnr,26.64
2023-07-26T12:06:00,mnr,30.26
2023-07-26T12:07:00,mnr,33.33
2023-07-26T12:08:00,mnr,33.98
2023-07-26T12:09:00,mnr,30.89
2023-07-26T12:10:00,mnr,19.77
2023-07-26T12:11:00,mnr,20.69
2023-07-26T12:12:00,mnr,20.12
2023-07-26T12:13:00,mnr,19.12
2023-07-26T12:14:00,mnr,18.91
2023-07-26T12:15:00,mnr,17.50
2023-07-26T12:16:00,mnr,18.13
2023-07-26T12:17:00,mnr,20.02
2023-07-26T12:18:00,mnr,24.11
2023-07-26T12:19:00,mnr,26.63
2023-07-26T12:20:00,mnr,30.23
2023-07-26T12:21:00,mnr,30.90
2023-07-26T12:22:00,mnr,29.95
2023-07-26T12:23:00,mnr,29.38
2023-07-26T12:24:00,mnr,19.48
2023-07-26T12:25:00,mnr,20.75
2023-07-26T12:26:00,mnr,20.85
2023-07-26T12:27:00,mnr,16.61
2023-07-26T12:28:00,mnr,15.97
2023-07-26T12:29:00,mnr,16.19
2023-07-26T12:30:00,mnr,16.13
2023-07-26T12:31:00,mnr,16.50
2023-07-26T12:32:00,mnr,16.25
2023-07-26T12:33:00,mnr,17.36
2023-07-26T12:34:00,mnr,15.65
2023-07-26T12:35:00,mnr,15.70
2023-07-26T12:36:00,mnr,15.70
2023-07-26T12:37:00,mnr,15.49
2023-07-26T12:38:00,mnr,14.78
2023-07-26T12:39:00,mnr,14.73
2023-07-26T12:40:00,mnr,14.60
2023-07-26T12:41:00,mnr,15.40
2023-07-26T12:42:00,mnr,15.46
2023-07-26T12:43:00,mnr,15.55
2023-07-26T12:44:00,mnr,15.40
2023-07-26T12:45:00,mnr,15.40
2023-07-26T12:46:00,mnr,15.44
2023-07-26T12:47:00,mnr,17.11
2023-07-26T12:48:00,mnr,14.73
2023-07-26T12:49:00,mnr,14.64
2023-07-26T12:50:00,mnr,14.45
2023-07-26T12:51:00,mnr,14.57
2023-07-26T12:52:00,mnr,14.17
2023-07-26T12:53:00,mnr,14.02
2023-07-26T12:54:00,mnr,15.49
2023-07-26T12:55:00,mnr,14.20
2023-07-26T12:56:00,mnr,14.51
2023-07-26T12:57:00,mnr,14.96
2023-07-26T12:58:00,mnr,15.17
2023-07-26T12:59:00,mnr,15.81
2023-07-26T13:00:00,mnr,15.16
2023-07-26T13:01:00,mnr,15.00
2023-07-26T13:02:00,mnr,15.20
2023-07-26T13:03:00,mnr,19.99
2023-07-26T13:04:00,mnr,17.29
2023-07-26T13:05:00,mnr,17.47
2023-07-26T13:06:00,mnr,17.30
2023-07-26T13:07:00,mnr,17.13
2023-07-26T13:08:00,mnr,17.47
2023-07-26T13:09:00,mnr,16.97
2023-07-26T13:10:00,mnr,17.17
2023-07-26T13:11:00,mnr,17.39
2023-07-26T13:12:00,mnr,17.34
2023-07-26T13:13:00,mnr,16.62
2023-07-26T13:14:00,mnr,16.44
2023-07-26T13:15:00,mnr,16.63
2023-07-26T13:16:00,mnr,16.12
2023-07-26T13:17:00,mnr,16.19
2023-07-26T13:18:00,mnr,15.54
2023-07-26T13:19:00,mnr,15.66
2023-07-26T13:20:00,mnr,15.63
2023-07-26T13:21:00,mnr,15.07
2023-07-26T13:22:00,mnr,13.72
2023-07-26T13:23:00,mnr,12.52
2023-07-26T13:24:00,mnr,13.00
2023-07-26T13:25:00,mnr,13.16
2023-07-26T13:26:00,mnr,13.59
2023-07-26T13:27:00,mnr,14.22
2023-07-26T13:28:00,mnr,13.96
2023-07-26T13:29:00,mnr,13.92
2023-07-26T13:30:00,mnr,13.60
2023-07-26T13:31:00,mnr,13.17
2023-07-26T13:32:00,mnr,12.86